Challis, ID

10:32 PM MDT on March 24, 2017 (GMT -0600)
Challis

Weather History for KLLJ - October, 2012

Change the Weather History Date:

Saturday, October 13, 2012

  Actual Average Record
Temperature  
Mean Temperature 51 °F 45 °F  
Max Temperature 64 °F 61 °F 80 °F (1950)
Min Temperature 38 °F 30 °F 11 °F (1969)
Degree Days  
Heating Degree Days 14 20  
Month to date heating degree days 229 224  
Since 1 July heating degree days 406 573  
Cooling Degree Days 0 0  
Month to date cooling degree days 0 0  
Year to date cooling degree days 329 248  
Growing Degree Days 4 (Base 50)    
Moisture  
Dew Point 27 °F    
Average Humidity 42    
Maximum Humidity 60    
Minimum Humidity 24    
Precipitation  
Precipitation T in 0.01 in 0.06 in (1968)
Month to date precipitation T 0.22  
Year to date precipitation 3.88 8.35  
Sea Level Pressure  
Sea Level Pressure 30.00 in    
Wind  
Wind Speed 6 mph (NW)    
Max Wind Speed 21 mph    
Max Gust Speed 25 mph    
Visibility 10 miles    
Events      
T = Trace of Precipitation, MM = Missing Value Source: NWS Daily Summary

Daily Weather History Graph

Daily Weather History Graph

Search for Another Location

Airport or City:

Trip Planner

Search our weather history database for the weather conditions in past years. The results will help you decide how hot, cold, wet, or windy it might be!

Date:

Astronomy

Oct. 13, 2012 Rise Set
Actual Time 7:50 AM MDT 6:54 PM MDT
Civil Twilight 7:20 AM MDT 7:24 PM MDT
Nautical Twilight 6:47 AM MDT 7:57 PM MDT
Astronomical Twilight 6:13 AM MDT 8:31 PM MDT
Moon 5:41 AM MDT (10/13) 5:43 PM MDT (10/13)
Length of Visible Light 12h 03m
Length of Day
11h 04m
Waning Crescent, 4% of the Moon is Illuminated
Oct 13
Waning Crescent
Oct 15
New
Oct 21
First Quarter
Oct 29
Full
Nov 6
Last Quarter

Hourly Weather History & Observations

Time (MDT) Temp. Dew Point Humidity Pressure Visibility Wind Dir Wind Speed Gust Speed Precip Events Conditions
12:55 AM 54.0 °F 17.1 °F 23% 29.83 in 10.0 mi Calm Calm - N/A   Scattered Clouds
1:55 AM 50.0 °F 18.0 °F 28% 29.83 in 10.0 mi South 3.5 mph - N/A   Mostly Cloudy
2:55 AM 48.0 °F 17.1 °F 29% 29.83 in 9.0 mi Calm Calm - N/A   Clear
3:55 AM 46.0 °F 19.0 °F 34% 29.84 in 9.0 mi Calm Calm - N/A   Partly Cloudy
4:55 AM 46.0 °F 24.1 °F 42% 29.85 in 10.0 mi Calm Calm - N/A   Overcast
5:55 AM 46.9 °F 23.0 °F 39% 29.87 in 10.0 mi Calm Calm - N/A   Mostly Cloudy
6:55 AM 48.9 °F 23.0 °F 36% 29.93 in 9.0 mi NNW 3.5 mph - N/A   Overcast
7:55 AM 51.1 °F 32.0 °F 48% 29.95 in 4.0 mi NW 13.8 mph - 0.00 in   Haze
8:55 AM 52.0 °F 34.0 °F 50% 29.99 in 10.0 mi NNE 9.2 mph 17.3 mph N/A   Overcast
9:55 AM 52.0 °F 34.0 °F 50% 30.03 in 9.0 mi Calm Calm - N/A   Clear
10:55 AM 57.0 °F 35.1 °F 44% 30.03 in 10.0 mi Calm Calm - N/A   Partly Cloudy
12:55 PM 60.1 °F 33.1 °F 36% 30.05 in 10.0 mi North 9.2 mph - N/A   Partly Cloudy
1:55 PM 62.1 °F 33.1 °F 34% 30.06 in 10.0 mi NW 17.3 mph - N/A   Clear
2:55 PM 62.1 °F 32.0 °F 32% 30.06 in 10.0 mi NW 15.0 mph 19.6 mph N/A   Clear
3:55 PM 62.1 °F 28.0 °F 28% 30.09 in 10.0 mi NNW 11.5 mph - N/A   Scattered Clouds
4:55 PM 62.1 °F 26.1 °F 25% 30.09 in 10.0 mi NW 12.7 mph - N/A   Mostly Cloudy
5:55 PM 61.0 °F 25.0 °F 25% 30.10 in 10.0 mi WNW 13.8 mph - N/A   Mostly Cloudy
8:55 PM 48.9 °F 28.9 °F 46% 30.18 in 10.0 mi Calm Calm - N/A   Scattered Clouds
9:55 PM 46.0 °F 27.0 °F 47% 30.19 in 10.0 mi Calm Calm - N/A   Clear
11:55 PM 41.0 °F 28.0 °F 60% 30.24 in 10.0 mi Calm Calm - N/A   Clear